Weather History for Manitowoc, WI

Change the Weather History Date:

Tuesday, December 3, 2013

  Actual Average Record
Temperature  
Mean Temperature 35 °F -  
Max Temperature 37 °F 35 °F 62 °F (1998)
Min Temperature 33 °F 20 °F -5 °F (1976)
Degree Days  
Heating Degree Days 30    
Moisture  
Dew Point 33 °F    
Average Humidity 94    
Maximum Humidity 100    
Minimum Humidity 70    
Precipitation  
Precipitation 0.08 in - - ()
Sea Level Pressure  
Sea Level Pressure 29.84 in    
Wind  
Wind Speed 14 mph (East)    
Max Wind Speed 22 mph    
Max Gust Speed 26 mph    
Visibility 6 miles    
Events Rain , Snow    
Averages and records for this station are not official NWS values.
T = Trace of Precipitation, MM = Missing Value Source: NWS Daily Summary

Daily Weather History Graph

Daily Weather History Graph

Search for Another Location

Airport:

Trip Planner

Search our weather history database for the weather conditions in past years. The results will help you decide how hot, cold, wet, or windy it might be!

Date:

Astronomy

Dec. 03, 2013 Rise Set
Actual Time 7:08 AM CST 4:12 PM CST
Civil Twilight 6:35 AM CST 4:45 PM CST
Nautical Twilight 5:59 AM CST 5:21 PM CST
Astronomical Twilight 5:24 AM CST 5:56 PM CST
Moon 7:36 AM CST (12/3) 5:17 PM CST (12/3)
Length of Visible Light 10h 09m
Length of Day
9h 04m
New Moon, 1% of the Moon is Illuminated
Dec 3
New Moon
Dec 9
First Quarter
Dec 17
Full
Dec 25
Last Quarter
Jan 1
New

Hourly Weather History & Observations

Time (CST) Temp. Windchill Dew Point Humidity Pressure Visibility Wind Dir Wind Speed Gust Speed Precip Events Conditions
12:56 AM 37.0 °F 26.2 °F 28.0 °F 70% 29.90 in 10.0 mi SE 21.9 mph 26.5 mph 0.00 in Rain Light Rain
1:15 AM 35.6 °F 25.5 °F 30.2 °F 81% 29.82 in 8.0 mi SE 17.3 mph - 0.00 in Snow Light Snow
1:56 AM 34.0 °F 24.6 °F 32.0 °F 92% 29.89 in 4.0 mi SE 13.8 mph - 0.00 in Snow Light Snow
2:12 AM 33.8 °F 23.2 °F 32.0 °F 93% 29.82 in 4.0 mi SE 17.3 mph - 0.00 in Snow Light Snow
2:32 AM 33.8 °F 22.5 °F 32.0 °F 93% 29.80 in 7.0 mi ESE 19.6 mph - 0.00 in Rain Light Rain
2:56 AM 34.0 °F 23.4 °F 32.0 °F 92% 29.88 in 10.0 mi ESE 17.3 mph 23.0 mph 0.00 in Rain Light Rain
3:22 AM 33.8 °F 22.8 °F 30.2 °F 87% 29.80 in 10.0 mi SE 18.4 mph - 0.00 in   Overcast
3:56 AM 34.0 °F 23.8 °F 30.0 °F 85% 29.86 in 10.0 mi SE 16.1 mph 25.3 mph 0.00 in Rain Light Rain
4:56 AM 34.0 °F 23.8 °F 30.9 °F 89% 29.88 in 10.0 mi ESE 16.1 mph - 0.00 in Rain Light Rain
5:08 AM 33.8 °F 23.2 °F 30.2 °F 87% 29.79 in 7.0 mi ESE 17.3 mph - 0.00 in Rain Light Rain
5:56 AM 33.1 °F 23.4 °F 30.9 °F 92% 29.88 in 8.0 mi ESE 13.8 mph - 0.01 in Snow Light Snow
6:56 AM 33.1 °F 24.4 °F 32.0 °F 96% 29.88 in 5.0 mi ESE 11.5 mph - 0.00 in   Overcast
7:14 AM 33.8 °F 23.9 °F 32.0 °F 93% 29.81 in 4.0 mi ESE 15.0 mph - 0.00 in   Overcast
7:56 AM 34.0 °F 23.8 °F 32.0 °F 92% 29.88 in 3.0 mi ESE 16.1 mph - 0.00 in Rain Light Rain
8:56 AM 34.0 °F 23.8 °F 33.1 °F 96% 29.88 in 4.0 mi ESE 16.1 mph 21.9 mph 0.00 in   Overcast
9:48 AM 33.8 °F 23.9 °F 32.0 °F 93% 29.82 in 10.0 mi East 15.0 mph - 0.00 in   Overcast
9:56 AM 34.0 °F 25.0 °F 32.0 °F 92% 29.89 in 10.0 mi East 12.7 mph - 0.00 in   Overcast
10:56 AM 34.0 °F 24.2 °F 32.0 °F 92% 29.89 in 6.0 mi East 15.0 mph - N/A   Overcast
11:56 AM 34.0 °F 24.6 °F 32.0 °F 92% 29.88 in 5.0 mi East 13.8 mph - N/A   Overcast
12:56 PM 34.0 °F 25.0 °F 33.1 °F 96% 29.86 in 5.0 mi East 12.7 mph - 0.00 in   Overcast
1:34 PM 33.8 °F 26.4 °F 33.8 °F 100% 29.78 in 3.0 mi ENE 9.2 mph - 0.00 in Rain Light Rain
1:56 PM 34.0 °F 27.2 °F 33.1 °F 96% 29.87 in 4.0 mi East 8.1 mph - 0.00 in   Overcast
2:56 PM 34.0 °F 25.5 °F 33.1 °F 96% 29.86 in 4.0 mi East 11.5 mph - 0.00 in Rain Light Rain
3:33 PM 33.8 °F 26.4 °F 33.8 °F 100% 29.78 in 2.5 mi East 9.2 mph - 0.00 in   Overcast
3:56 PM 34.0 °F 28.0 °F 33.1 °F 96% 29.85 in 2.0 mi East 6.9 mph - 0.01 in   Overcast
4:25 PM 33.8 °F 27.0 °F 33.8 °F 100% 29.77 in 3.0 mi East 8.1 mph - 0.00 in Rain Light Rain
4:56 PM 34.0 °F 26.6 °F 34.0 °F 100% 29.85 in 5.0 mi East 9.2 mph - 0.01 in Rain Light Rain
5:38 PM 35.6 °F 28.0 °F 33.8 °F 93% 29.77 in 7.0 mi East 10.4 mph - 0.00 in Rain Light Rain
5:56 PM 35.1 °F 28.6 °F 34.0 °F 96% 29.86 in 9.0 mi East 8.1 mph - 0.00 in Rain Light Rain
6:43 PM 35.6 °F 29.2 °F 33.8 °F 93% 29.80 in 10.0 mi East 8.1 mph - 0.01 in Rain Light Rain
6:56 PM 35.1 °F 29.3 °F 34.0 °F 96% 29.88 in 7.0 mi ENE 6.9 mph - 0.01 in Rain Light Rain
7:56 PM 34.0 °F 29.8 °F 33.1 °F 96% 29.88 in 7.0 mi ENE 4.6 mph - 0.01 in Rain Light Rain
8:19 PM 33.8 °F 28.6 °F 33.8 °F 100% 29.79 in 5.0 mi ENE 5.8 mph - 0.00 in Rain Light Rain
8:56 PM 35.1 °F 31.0 °F 34.0 °F 96% 29.88 in 5.0 mi NE 4.6 mph - 0.01 in Rain Light Rain
9:54 PM 35.6 °F 31.7 °F 33.8 °F 93% 29.80 in 2.5 mi ENE 4.6 mph - 0.01 in   Overcast
9:56 PM 35.1 °F 31.0 °F 34.0 °F 96% 29.88 in 2.5 mi ENE 4.6 mph - 0.01 in   Overcast
10:11 PM 35.6 °F 30.7 °F 33.8 °F 93% 29.80 in 2.5 mi East 5.8 mph - 0.00 in   Overcast
10:56 PM 35.1 °F 30.1 °F 35.1 °F 100% 29.86 in 2.5 mi East 5.8 mph - 0.00 in   Overcast
11:08 PM 35.6 °F 31.7 °F 35.6 °F 100% 29.79 in 3.0 mi East 4.6 mph - N/A   Overcast
11:21 PM 35.6 °F 31.7 °F 35.6 °F 100% 29.79 in 2.5 mi NE 4.6 mph - N/A   Overcast
11:56 PM 35.1 °F 31.0 °F 35.1 °F 100% 29.86 in 2.0 mi ENE 4.6 mph - 0.01 in   Overcast